Temp
5 6 5 5 6 7 8 7 6 7 5 5 3 2 -0 -2 -3 -3 -4 -5 -6 -6 -6 -6 -6 -6 -5 -4 -4 -3 -2 -3 -3 -3 -3 -3 -3 -3 -2 -2 -2 -2 -2 -2
4 6 8 6 8 9 9 9 8 6 5 4 1 -0 -1 -2 -3 -4 -5 -5 -6 -6 -6 -7 -6 -6 -5 -5 -4 -4 -4 -4 -4 -3 -3 -3 -3 -3 -3 -2 -2 -2 -2 -3
5 5 5 5 6 9 5 4 5 4 4 1 0 -1 -2 -3 -4 -5 -6 -6 -6 -6 -6 -7 -7 -6 -6 -6 -5 -4 -4 -4 -4 -3 -3 -3 -3 -3 -3 -3 -2 -2 -2 -2
4 4 5 4 4 6 4 2 2 2 2 1 -2 -4 -4 -4 -4 -5 -6 -7 -6 -7 -6 -6 -6 -7 -6 -6 -6 -6 -6 -5 -4 -4 -3 -3 -3 -3 -4 -4 -4 -3 -3 -3
2 4 4 4 3 2 4 2 0 1 -1 -3 -4 -5 -5 -5 -5 -5 -6 -7 -7 -6 -6 -6 -6 -7 -7 -6 -6 -6 -5 -5 -5 -4 -4 -4 -4 -4 -4 -4 -4 -4 -3 -3
2 2 3 1 4 3 2 1 -1 -1 -3 -4 -4 -5 -5 -6 -6 -6 -7 -7 -7 -7 -6 -6 -7 -7 -7 -7 -7 -7 -6 -6 -6 -5 -5 -4 -5 -5 -5 -4 -4 -4 -4 -4
3 3 2 2 4 4 1 1 -2 -2 -3 -4 -5 -4 -5 -6 -6 -7 -7 -7 -7 -7 -6 -7 -7 -7 -7 -7 -7 -7 -7 -7 -6 -6 -6 -5 -5 -5 -4 -4 -4 -4 -4 -4
3 2 1 1 3 2 -2 -3 -2 -2 -3 -4 -5 -5 -6 -6 -7 -7 -7 -7 -7 -7 -7 -7 -7 -7 -7 -8 -8 -7 -7 -6 -6 -7 -7 -6 -6 -6 -6 -5 -5 -5 -5 -5
2 0 -2 -2 -1 -2 -1 -2 -3 -3 -4 -4 -5 -6 -7 -7 -7 -7 -8 -8 -8 -7 -8 -7 -7 -7 -7 -8 -8 -7 -7 -7 -8 -8 -8 -7 -7 -7 -7 -7 -7 -8 -8 -8
-0 -2 -2 -3 -3 -2 -2 -2 -4 -4 -6 -5 -6 -7 -7 -7 -7 -7 -8 -8 -8 -8 -8 -7 -7 -8 -8 -8 -7 -7 -8 -9 -9 -9 -9 -10 -10 -10 -10 -10 -10 -12 -11 -10
-1 -2 -2 -3 -3 -3 -4 -4 -4 -5 -5 -5 -6 -7 -7 -8 -8 -8 -7 -7 -7 -7 -7 -8 -8 -8 -7 -8 -8 -8 -9 -9 -10 -10 -10 -11 -11 -11 -11 -12 -12 -13 -14 -13
-0 -1 -1 -2 -3 -3 -4 -4 -5 -6 -7 -7 -6 -7 -7 -7 -8 -8 -7 -7 -7 -7 -8 -9 -8 -8 -8 -8 -8 -9 -9 -10 -10 -10 -10 -10 -11 -12 -12 -13 -13 -13 -15 -15
0 -1 -1 -3 -3 -3 -4 -5 -6 -6 -6 -7 -7 -7 -7 -7 -8 -8 -7 -8 -8 -8 -8 -8 -8 -8 -9 -9 -9 -10 -10 -10 -10 -10 -11 -11 -12 -12 -12 -13 -13 -14 -14 -15
-1 -1 -5 -4 -5 -4 -5 -6 -6 -6 -7 -7 -7 -7 -7 -8 -8 -8 -8 -8 -8 -8 -8 -9 -8 -8 -9 -11 -10 -10 -11 -11 -11 -12 -13 -13 -13 -13 -14 -14 -14 -14 -15 -15
-1 -1 -2 -4 -4 -5 -5 -6 -7 -7 -7 -8 -8 -8 -8 -7 -7 -8 -9 -9 -9 -8 -8 -9 -9 -9 -11 -11 -10 -10 -10 -11 -12 -12 -12 -12 -13 -13 -13 -13 -14 -14 -15 -15
-2 -1 -3 -4 -5 -5 -6 -7 -7 -7 -7 -8 -8 -8 -8 -7 -8 -9 -9 -9 -8 -9 -10 -10 -10 -10 -11 -10 -10 -10 -10 -12 -12 -12 -12 -12 -13 -13 -14 -14 -15 -15 -16 -16
-3 -5 -5 -5 -6 -6 -6 -6 -6 -7 -7 -7 -7 -8 -9 -8 -8 -8 -8 -9 -10 -10 -9 -10 -10 -11 -10 -9 -9 -10 -11 -12 -12 -13 -13 -14 -14 -15 -15 -16 -16 -16 -17 -17
-1 -2 -4 -4 -5 -5 -6 -6 -6 -7 -7 -7 -7 -8 -8 -8 -7 -7 -8 -9 -10 -10 -11 -11 -11 -10 -10 -10 -11 -11 -12 -14 -14 -14 -15 -15 -16 -16 -16 -16 -17 -17 -17 -17
-2 -3 -4 -4 -4 -5 -6 -6 -6 -6 -6 -7 -7 -8 -8 -8 -7 -8 -9 -9 -10 -11 -11 -12 -11 -11 -11 -11 -12 -13 -14 -15 -15 -15 -16 -16 -16 -17 -17 -17 -17 -17 -17 -18
-2 -3 -4 -4 -5 -5 -6 -6 -6 -6 -6 -7 -7 -8 -8 -8 -8 -9 -10 -10 -11 -11 -11 -12 -12 -12 -12 -12 -14 -14 -15 -15 -15 -16 -16 -17 -17 -17 -18 -18 -18 -18 -18 -18
-3 -3 -4 -5 -5 -5 -6 -6 -6 -7 -7 -7 -7 -7 -8 -9 -9 -9 -10 -10 -11 -12 -12 -12 -12 -13 -14 -14 -14 -15 -16 -16 -16 -16 -17 -17 -18 -18 -18 -19 -19 -19 -19 -19
-3 -3 -4 -5 -5 -5 -6 -6 -7 -7 -8 -8 -8 -8 -8 -9 -10 -11 -11 -11 -11 -13 -13 -13 -14 -14 -15 -15 -15 -16 -16 -15 -16 -17 -17 -17 -17 -18 -18 -19 -19 -20 -20 -20
-3 -4 -4 -5 -5 -5 -6 -6 -7 -7 -8 -9 -8 -8 -8 -9 -9 -10 -11 -12 -12 -13 -13 -14 -14 -15 -15 -15 -16 -16 -15 -16 -16 -17 -17 -18 -18 -19 -19 -20 -20 -20 -20 -21
-4 -4 -4 -5 -5 -6 -6 -7 -8 -8 -9 -8 -8 -9 -9 -10 -11 -12 -12 -12 -13 -13 -14 -14 -15 -16 -16 -16 -16 -16 -16 -16 -17 -17 -18 -19 -19 -19 -20 -20 -20 -21 -21 -21
-4 -4 -5 -5 -6 -6 -7 -8 -8 -9 -10 -9 -10 -10 -10 -11 -10 -11 -12 -12 -13 -13 -14 -15 -15 -16 -16 -16 -16 -16 -16 -17 -17 -18 -18 -19 -19 -20 -20 -21 -21 -21 -21 -22
-5 -5 -6 -6 -6 -7 -7 -8 -8 -10 -10 -10 -10 -11 -11 -11 -12 -12 -13 -13 -13 -14 -15 -15 -16 -16 -16 -16 -16 -17 -17 -18 -18 -18 -19 -19 -20 -20 -21 -21 -21 -21 -22 -22
-6 -6 -7 -7 -7 -8 -8 -8 -8 -10 -9 -10 -10 -11 -12 -12 -12 -13 -13 -13 -14 -15 -15 -16 -16 -16 -16 -16 -17 -17 -18 -18 -18 -19 -19 -20 -20 -20 -21 -21 -21 -21 -22 -22
Height
1446 1445 1447 1447 1442 1439 1435 1438 1447 1444 1450 1450 1458 1466 1474 1479 1482 1481 1481 1480 1477 1474 1472 1470 1471 1466 1463 1458 1454 1448 1441 1440 1437 1432 1426 1422 1418 1413 1408 1403 1396 1391 1385 1378
1447 1440 1437 1439 1435 1431 1427 1429 1435 1441 1450 1454 1461 1466 1473 1477 1480 1482 1482 1482 1480 1479 1478 1475 1470 1468 1464 1460 1455 1449 1446 1443 1441 1435 1429 1428 1420 1415 1411 1406 1399 1393 1387 1381
1440 1440 1441 1438 1433 1426 1435 1438 1437 1443 1441 1453 1461 1466 1472 1476 1479 1481 1482 1482 1481 1480 1478 1475 1473 1470 1466 1462 1458 1451 1448 1447 1443 1438 1435 1430 1424 1419 1413 1407 1402 1398 1392 1386
1442 1444 1436 1431 1430 1430 1435 1441 1439 1439 1444 1451 1459 1465 1470 1475 1477 1479 1479 1480 1480 1480 1478 1475 1475 1472 1468 1463 1458 1455 1453 1451 1446 1442 1438 1434 1429 1425 1419 1414 1406 1402 1397 1391
1447 1440 1437 1433 1434 1436 1432 1441 1441 1443 1450 1456 1462 1467 1472 1474 1475 1476 1477 1478 1478 1477 1476 1476 1473 1470 1466 1464 1461 1459 1456 1452 1448 1445 1443 1438 1433 1428 1424 1418 1411 1405 1400 1395
1444 1444 1438 1435 1429 1430 1431 1444 1439 1442 1449 1454 1460 1468 1469 1471 1472 1474 1476 1476 1475 1475 1475 1473 1472 1470 1468 1466 1464 1462 1459 1456 1453 1450 1446 1441 1436 1432 1427 1422 1418 1412 1407 1402
1437 1437 1434 1428 1428 1430 1446 1440 1437 1441 1446 1453 1457 1459 1463 1468 1472 1474 1475 1475 1475 1475 1475 1474 1473 1472 1470 1469 1466 1465 1463 1460 1456 1453 1448 1444 1441 1436 1432 1428 1424 1418 1412 1408
1431 1438 1438 1426 1429 1433 1434 1434 1437 1441 1445 1451 1455 1459 1463 1469 1473 1474 1475 1476 1476 1476 1477 1476 1476 1475 1473 1470 1470 1468 1465 1461 1458 1455 1452 1448 1444 1440 1435 1431 1426 1421 1416 1412
1425 1428 1427 1427 1428 1428 1430 1433 1438 1441 1444 1448 1453 1459 1464 1469 1472 1474 1476 1476 1477 1477 1478 1478 1477 1477 1475 1472 1471 1469 1466 1463 1461 1458 1455 1451 1446 1443 1437 1433 1428 1425 1422 1418
1425 1428 1428 1428 1430 1430 1433 1435 1438 1441 1443 1448 1452 1460 1465 1469 1472 1474 1476 1477 1477 1478 1478 1478 1478 1477 1476 1474 1472 1470 1468 1466 1464 1461 1458 1454 1450 1446 1441 1438 1435 1432 1428 1425
1426 1427 1429 1430 1430 1431 1434 1437 1440 1444 1447 1450 1454 1460 1464 1468 1472 1474 1476 1476 1478 1479 1479 1479 1479 1477 1476 1475 1473 1471 1469 1468 1466 1464 1461 1458 1454 1451 1448 1446 1443 1440 1436 1432
1415 1411 1416 1421 1427 1431 1434 1438 1442 1445 1449 1454 1457 1460 1465 1468 1472 1474 1475 1477 1478 1479 1479 1479 1479 1478 1477 1476 1475 1474 1471 1470 1468 1466 1463 1461 1459 1457 1454 1452 1449 1445 1442 1438
1406 1410 1415 1419 1426 1431 1435 1439 1443 1447 1451 1453 1459 1462 1466 1468 1472 1474 1476 1478 1479 1480 1480 1480 1480 1479 1478 1478 1477 1475 1473 1472 1470 1467 1465 1463 1461 1459 1456 1455 1451 1448 1445 1441
1407 1411 1421 1422 1425 1431 1436 1440 1445 1449 1453 1456 1459 1463 1467 1469 1472 1475 1478 1479 1480 1481 1481 1481 1481 1481 1480 1479 1478 1476 1475 1473 1471 1469 1467 1465 1462 1461 1459 1455 1452 1449 1447 1444
1412 1412 1415 1421 1427 1432 1437 1441 1445 1450 1453 1458 1462 1464 1467 1469 1473 1476 1478 1480 1481 1482 1482 1482 1483 1482 1481 1480 1479 1477 1476 1475 1473 1471 1469 1466 1464 1462 1460 1457 1454 1452 1449 1446
1413 1415 1418 1422 1427 1432 1436 1441 1445 1449 1453 1458 1461 1465 1468 1471 1473 1477 1479 1481 1483 1483 1484 1484 1484 1483 1482 1481 1480 1479 1477 1477 1474 1472 1470 1467 1465 1463 1461 1459 1457 1454 1451 1447
1414 1419 1421 1424 1428 1432 1436 1441 1446 1449 1453 1457 1461 1465 1468 1471 1474 1477 1480 1482 1484 1484 1485 1485 1485 1484 1484 1483 1481 1480 1479 1478 1475 1473 1470 1469 1467 1465 1463 1461 1459 1456 1453 1450
1415 1417 1421 1424 1428 1432 1438 1442 1446 1449 1453 1457 1461 1465 1469 1472 1474 1477 1480 1482 1484 1485 1486 1486 1485 1485 1484 1483 1481 1481 1480 1479 1476 1473 1472 1470 1468 1467 1464 1462 1460 1456 1454 1451
1417 1419 1423 1426 1430 1434 1439 1442 1446 1450 1454 1458 1462 1466 1470 1473 1475 1478 1480 1483 1485 1486 1487 1486 1486 1485 1485 1483 1482 1481 1481 1479 1477 1474 1472 1470 1468 1466 1463 1461 1458 1455 1452 1449
1419 1422 1425 1429 1432 1436 1439 1443 1447 1451 1455 1458 1462 1466 1470 1473 1476 1478 1481 1483 1485 1487 1486 1486 1486 1486 1485 1484 1483 1482 1481 1479 1476 1474 1471 1469 1467 1464 1462 1459 1456 1453 1450 1447
1421 1424 1427 1430 1434 1437 1441 1444 1447 1451 1455 1459 1462 1466 1470 1473 1476 1479 1481 1482 1484 1485 1486 1486 1486 1486 1485 1484 1483 1482 1480 1477 1474 1472 1470 1467 1465 1462 1459 1456 1453 1450 1447 1444
1422 1425 1429 1431 1434 1438 1441 1444 1448 1451 1455 1459 1463 1467 1470 1473 1476 1479 1481 1483 1483 1484 1485 1485 1485 1485 1485 1484 1482 1481 1478 1475 1473 1471 1468 1465 1462 1459 1456 1453 1450 1448 1445 1442
1424 1427 1429 1432 1435 1438 1441 1444 1448 1451 1455 1459 1462 1466 1470 1474 1476 1477 1479 1481 1482 1483 1484 1484 1484 1484 1484 1482 1481 1478 1476 1473 1471 1468 1466 1463 1460 1457 1454 1451 1448 1445 1442 1439
1424 1427 1430 1432 1435 1438 1441 1444 1448 1452 1456 1460 1464 1467 1470 1473 1476 1477 1479 1480 1481 1482 1482 1483 1483 1484 1482 1481 1479 1476 1474 1471 1469 1466 1463 1461 1458 1455 1452 1449 1446 1442 1439 1436
1425 1427 1430 1433 1435 1438 1441 1444 1448 1451 1456 1459 1463 1466 1470 1474 1477 1477 1478 1479 1480 1481 1481 1482 1482 1481 1480 1478 1476 1474 1472 1469 1467 1464 1461 1459 1456 1453 1450 1447 1443 1440 1436 1433
1424 1427 1429 1432 1434 1437 1439 1442 1446 1450 1454 1458 1463 1466 1469 1472 1474 1476 1477 1478 1478 1479 1480 1480 1479 1478 1477 1475 1473 1471 1469 1467 1465 1462 1459 1457 1454 1451 1448 1444 1440 1437 1433 1429
1423 1426 1428 1431 1434 1436 1439 1442 1445 1449 1454 1458 1462 1466 1469 1471 1473 1474 1475 1476 1477 1478 1478 1477 1477 1476 1475 1473 1471 1469 1467 1465 1463 1460 1458 1455 1452 1449 1445 1442 1438 1434 1430 1426
Wind_Speed
5 5 2 4 13 14 15 12 8 6 10 15 15 14 16 15 10 7 6 6 9 10 12 13 11 13 14 15 17 19 21 23 23 24 25 27 28 30 29 27 27 27 27 27
4 10 9 10 14 8 13 15 13 6 7 11 18 19 14 11 9 6 5 5 6 7 8 11 13 15 16 16 17 19 20 22 22 24 25 24 27 30 31 32 33 32 33 35
7 4 7 7 10 11 3 1 6 7 7 16 14 14 14 12 9 9 8 7 6 5 7 9 12 14 17 18 18 21 22 22 22 23 23 26 27 28 31 33 34 35 36 38
1 3 7 1 3 4 6 2 3 8 16 15 14 15 14 11 10 9 8 7 5 6 7 9 10 11 13 16 19 22 23 22 22 22 23 23 24 26 28 30 33 34 35 38
3 4 2 2 4 5 4 4 0 11 14 19 20 18 7 7 8 8 7 8 7 6 6 7 9 11 13 17 18 20 21 23 24 24 22 22 24 26 27 28 31 33 34 35
2 3 6 5 3 6 3 3 8 12 16 20 18 3 4 12 10 10 8 6 5 5 5 5 9 9 13 15 16 17 19 21 22 23 24 24 25 26 26 27 29 31 33 35
5 4 4 2 6 4 5 5 11 20 22 23 4 3 21 16 13 10 9 6 5 5 5 7 8 10 12 13 16 15 15 17 19 20 22 23 25 24 25 27 28 30 32 33
4 3 6 3 3 6 4 10 16 17 19 19 14 22 22 19 16 15 11 7 5 6 6 8 6 7 11 15 12 12 14 16 19 21 22 24 26 27 27 28 30 33 34 34
3 4 1 2 1 9 13 20 14 15 16 23 26 26 24 22 20 15 10 9 8 7 7 6 5 6 9 13 12 12 14 17 19 21 23 25 29 30 31 33 34 35 35 35
3 3 3 8 13 11 15 15 14 15 22 28 31 28 27 23 18 14 10 9 9 9 9 10 9 9 11 11 12 13 15 17 19 21 23 26 28 31 33 33 32 31 34 33
3 5 8 6 12 17 18 18 19 18 22 26 28 27 24 21 17 13 10 11 11 11 12 13 12 11 10 10 10 14 15 16 18 19 21 23 25 27 28 27 26 26 28 29
5 16 5 14 21 20 20 20 20 23 23 22 25 25 22 19 15 13 13 12 12 11 11 11 9 10 11 11 11 12 14 16 17 18 19 19 20 21 22 23 24 24 24 26
5 21 7 22 23 18 19 20 21 21 23 27 22 21 19 19 16 16 14 12 11 11 10 9 9 9 10 10 11 12 14 15 16 17 17 17 19 21 22 22 23 25 26 26
19 24 19 25 14 20 20 20 20 22 22 22 22 20 19 19 18 16 14 12 11 9 8 7 7 7 8 9 10 11 13 14 15 14 13 15 17 17 19 23 25 26 26 26
15 2 17 22 24 21 21 25 25 25 24 22 21 22 21 21 19 17 14 12 10 9 8 5 4 7 8 10 10 12 13 14 14 13 14 14 15 16 18 20 22 23 23 25
7 8 20 27 27 25 26 25 27 26 24 24 23 22 20 19 18 15 12 11 9 9 8 6 4 7 8 9 11 11 12 12 13 14 14 16 16 18 19 20 20 21 23 26
19 18 26 27 28 29 28 26 26 26 26 25 23 21 21 20 18 14 13 11 9 8 7 6 5 7 7 8 10 11 11 11 13 14 16 16 16 16 17 17 18 18 19 21
7 13 25 28 30 29 27 25 25 26 25 24 22 21 20 18 15 14 13 12 10 8 7 6 6 5 7 8 10 11 12 12 13 15 16 15 15 15 15 15 15 15 16 17
8 18 22 24 25 26 26 25 23 23 22 21 21 18 16 15 14 14 14 12 10 8 8 7 5 5 6 9 10 11 11 11 13 15 15 15 15 16 16 17 17 16 17 16
12 15 17 21 22 24 25 22 21 22 21 21 19 19 19 17 15 15 13 11 10 8 7 4 4 5 8 8 8 10 10 13 15 15 15 15 16 17 17 16 17 17 17 16
15 17 19 20 23 22 20 21 22 22 22 20 19 19 18 18 17 15 13 10 9 8 5 1 3 6 8 8 9 10 11 14 16 16 16 17 17 18 18 19 19 18 17 16
19 20 20 20 20 20 20 21 22 21 22 21 18 18 19 19 18 15 11 7 8 6 3 2 4 5 7 9 11 12 14 16 16 16 17 18 19 20 20 20 20 19 19 19
20 20 18 17 19 19 20 20 20 20 22 21 20 19 18 17 15 14 11 9 7 4 3 3 3 5 7 12 12 13 15 15 15 17 18 18 19 20 21 21 21 21 21 21
18 19 18 17 17 19 21 21 20 20 19 19 18 18 20 20 16 13 9 8 5 3 3 3 3 5 9 12 13 14 15 15 16 16 17 18 19 20 20 21 21 22 22 22
15 17 18 17 18 18 19 22 22 22 22 22 22 21 17 13 7 11 9 7 5 4 3 3 5 7 10 12 13 15 15 15 15 16 17 18 19 20 20 21 21 22 22 22
15 17 17 18 18 19 21 23 25 25 25 25 22 19 17 15 11 11 9 7 5 5 4 5 6 9 11 13 14 14 15 15 16 16 17 18 19 20 20 21 21 22 22 23
15 16 18 18 17 18 20 24 26 26 27 24 22 19 15 13 12 11 9 7 5 4 4 5 8 10 11 13 13 13 14 15 15 16 16 17 18 19 20 21 22 23 23 24
Wind_Direction
241 225 212 278 254 235 205 207 196 196 178 172 165 148 139 136 122 98 71 43 20 22 26 30 29 38 39 39 39 42 46 45 42 42 43 45 41 39 36 34 31 29 27 28
269 230 221 244 237 242 225 215 226 133 128 131 126 128 135 140 126 116 106 87 59 60 53 51 44 46 48 48 48 49 49 47 43 44 44 43 50 48 46 42 41 38 37 37
252 203 238 246 240 221 125 13 143 172 171 148 153 143 141 136 142 143 133 130 108 71 61 55 58 58 59 58 59 56 53 47 43 41 42 41 41 43 45 45 44 43 43 43
122 110 226 78 351 221 132 92 102 106 143 148 134 117 131 146 153 144 144 134 115 108 88 83 80 64 62 58 56 55 50 48 45 40 39 40 41 41 44 44 44 43 42 43
191 219 354 213 201 160 171 205 124 130 128 126 126 114 110 168 164 151 134 137 134 113 105 92 86 74 59 56 47 46 44 43 43 42 40 40 42 42 41 40 42 43 40 38
160 226 224 232 146 141 116 294 175 147 152 153 152 139 160 165 163 156 143 136 143 129 102 92 66 73 65 54 48 42 41 43 43 45 43 42 44 43 42 40 40 40 40 38
217 248 286 206 143 134 100 235 143 156 159 162 170 176 158 160 155 151 151 156 151 152 127 93 77 63 70 58 49 42 41 44 45 44 45 43 42 42 40 41 41 39 39 38
198 202 263 142 124 179 163 118 146 151 156 163 153 143 149 154 156 156 157 158 152 148 128 103 88 63 66 62 49 45 45 44 45 42 43 42 42 40 38 35 34 33 31 31
179 211 63 20 124 137 145 152 155 165 173 173 153 150 154 156 160 166 168 154 140 131 119 114 103 76 70 70 61 54 50 48 44 42 38 38 36 34 34 33 30 27 27 27
136 165 134 119 131 141 148 152 150 156 154 161 152 153 153 158 161 161 149 141 136 134 126 110 96 86 76 69 64 57 54 49 43 39 37 37 33 32 31 31 29 23 19 21
80 131 126 173 167 151 140 140 142 146 151 157 154 156 158 158 158 153 147 138 137 134 119 105 92 84 76 69 59 57 50 45 42 39 39 38 33 30 32 34 31 31 20 21
216 185 156 171 170 162 152 154 158 158 157 163 161 159 162 156 157 152 148 139 142 137 124 109 98 82 70 61 51 47 47 41 36 32 30 30 30 31 34 34 32 36 36 28
179 161 161 163 163 167 168 165 168 167 164 158 162 160 162 154 151 151 148 145 142 138 124 109 95 80 61 48 40 37 36 34 27 24 21 23 24 22 21 27 31 31 31 31
142 134 117 156 159 170 170 166 164 163 162 163 161 162 160 156 151 152 149 141 135 136 132 115 91 74 56 41 28 30 30 28 24 26 26 23 20 20 20 19 18 19 20 22
135 96 170 162 159 164 163 161 160 163 163 164 165 162 162 157 156 155 148 140 142 141 130 119 96 79 57 37 24 23 18 22 23 22 20 17 17 14 12 9 9 7 4 8
138 131 158 161 161 167 167 169 168 168 169 168 168 169 166 161 155 150 146 147 148 136 131 140 119 81 56 31 18 13 15 16 15 15 14 16 14 11 10 11 8 5 1 1
136 142 158 159 164 171 176 176 177 173 172 173 172 169 168 164 158 155 157 153 149 149 140 127 91 63 37 19 10 11 10 8 13 16 18 16 13 13 13 14 14 17 15 8
223 188 176 172 172 175 177 179 178 178 176 173 172 173 173 171 166 158 156 152 150 146 124 107 81 43 14 11 10 10 9 9 9 10 6 3 1 355 353 353 353 353 355 1
189 179 180 181 182 181 181 183 183 183 180 175 175 179 178 169 166 164 159 150 145 144 123 98 67 24 5 360 1 4 0 358 1 0 356 352 347 344 340 337 335 335 332 334
172 179 183 183 184 186 185 188 185 183 181 180 180 178 175 173 171 167 154 152 150 151 133 96 37 5 2 356 356 353 345 352 356 353 348 345 341 339 336 335 337 338 335 330
176 179 178 183 187 192 195 188 187 185 182 186 186 179 174 168 165 165 160 160 157 155 157 156 355 8 14 6 353 341 337 346 347 345 342 340 338 337 336 334 332 331 331 330
183 183 186 193 193 194 195 191 189 186 181 179 179 180 178 173 168 162 158 158 154 163 205 288 341 351 352 351 344 334 339 345 342 338 336 337 337 338 338 337 334 332 328 321
189 191 198 198 195 194 189 189 189 187 180 182 184 183 184 179 176 178 176 168 163 189 226 271 302 321 333 342 345 345 347 344 340 341 341 340 339 338 336 335 335 333 330 326
195 198 199 196 192 188 184 184 186 185 181 183 183 181 179 173 170 169 185 183 186 214 242 256 276 306 328 340 344 344 345 345 343 342 341 339 337 335 336 336 335 332 330 328
200 201 198 193 191 190 188 184 180 176 171 179 178 179 181 179 201 194 185 197 223 224 234 239 283 314 333 340 341 343 343 342 342 342 340 337 337 338 338 336 333 331 330 329
202 199 198 201 202 198 195 189 183 174 180 180 181 183 184 189 197 194 197 206 213 212 244 278 310 329 332 335 336 339 339 340 339 339 339 340 339 338 337 336 335 333 331 329
201 203 201 201 203 204 199 192 185 181 188 189 185 180 187 194 196 196 201 204 209 238 272 304 322 326 328 329 333 334 335 335 337 340 342 341 340 340 341 340 337 335 334 331